This is the latest recevied weather packets stored in our database for station/object KU9TRY. If no packets are shown the sender has not sent any weather packets the latest 10 day(s).
| Time | Temp. | Humidity | Pressure | Rain* | Wind** | Luminosity | Snow |
|---|---|---|---|---|---|---|---|
| 1787920195 | 20° C | 96% | 1018.5 hPa | 0 mm | - | 61 W/m² | - |
| 1787919891 | 20° C | 97% | 1018.6 hPa | 0 mm | - | 57 W/m² | - |
| 1787919589 | 19.44° C | 98% | 1018.4 hPa | 0 mm | - | 53 W/m² | - |
| 1787919285 | 19.44° C | 98% | 1018.4 hPa | 0 mm | - | 49 W/m² | - |
| 1787918981 | 19.44° C | 98% | 1018.4 hPa | 0 mm | - | 46 W/m² | - |
| 1787918681 | 19.44° C | 98% | 1018.2 hPa | 0 mm | - | 41 W/m² | - |
| 1787918378 | 18.89° C | 98% | 1018.3 hPa | 0 mm | - | 36 W/m² | - |
| 1787918074 | 18.89° C | 98% | 1018.2 hPa | 0 mm | - | 32 W/m² | - |
| 1787917769 | 18.89° C | 98% | 1018.3 hPa | 0 mm | - | 27 W/m² | - |
| 1787917465 | 18.89° C | 98% | 1018 hPa | 0 mm | - | 21 W/m² | - |
| 1787917161 | 18.89° C | 98% | 1018 hPa | 0 mm | - | 14 W/m² | - |
| 1787916860 | 18.89° C | 98% | 1018 hPa | 0 mm | - | 10 W/m² | - |
| 1787916560 | 18.89° C | 98% | 1017.9 hPa | 0 mm | - | 8 W/m² | - |
| 1787916255 | 18.89° C | 98% | 1017.8 hPa | 0 mm | - | 6 W/m² | - |
| 1787915950 | 18.89° C | 98% | 1017.8 hPa | 0 mm | - | 4 W/m² | - |
| 1787915646 | 18.89° C | 98% | 1017.7 hPa | 0 mm | - | 3 W/m² | - |
| 1787915346 | 18.89° C | 98% | 1017.5 hPa | 0 mm | - | 2 W/m² | - |
| 1787915041 | 18.89° C | 98% | 1017.6 hPa | 0 mm | - | 1 W/m² | - |
| 1787914739 | 18.89° C | 98% | 1017.6 hPa | 0 mm | - | 0 W/m² | - |
| 1787914129 | 18.89° C | 98% | 1017.6 hPa | 0 mm | - | 0 W/m² | - |
| 1787913828 | 18.89° C | 98% | 1017.2 hPa | 0 mm | - | 0 W/m² | - |
| 1787912316 | 19.44° C | 98% | 1017.4 hPa | 0 mm | - | 0 W/m² | - |
| 1787912015 | 19.44° C | 98% | 1017.2 hPa | 0 mm | - | 0 W/m² | - |
| 1787911710 | 19.44° C | 98% | 1017.2 hPa | 0 mm | - | 0 W/m² | - |
| 1787911410 | 19.44° C | 98% | 1017.1 hPa | 0 mm | - | 0 W/m² | - |
* Rain latest hour (hover to see other rain measurements)
** Current wind speed in m/s (hover to see current wind gust speed)